EW0482 Weather Reports


Display with metric or nautical units.
time (UTC)temp
F
wind
direction
speed
MPH
gust
MPH
rain 1hr
in
rain 24hr
in
rain mn
in
humidity
%
barometer
mb
20260905124525 64 242 0.0 0.0 0.00 0.00 0.00 70 1002.0
20260905123023 64 242 0.0 0.0 0.00 0.00 0.00 72 1002.0
20260905121520 64 242 0.0 0.0 0.00 0.00 0.00 74 1002.0
20260905120020 64 242 0.0 0.0 0.00 0.00 0.00 74 1002.0
20260905114520 64 242 0.0 0.0 0.00 0.00 0.00 74 1002.0
20260905113017 64 241 0.0 0.0 0.00 0.00 0.00 77 1002.0
20260905111528 64 241 0.0 0.0 0.00 0.00 0.00 78 1002.1
20260905110031 65 241 0.0 0.0 0.00 0.00 0.00 77 1002.1
20260905104514 64 241 0.0 0.0 0.00 0.00 0.00 79 1002.1
20260905103014 64 241 0.0 0.0 0.00 0.00 0.00 81 1002.2
20260905101513 65 241 0.0 0.0 0.00 0.00 0.00 81 1002.2
20260905100012 64 241 0.0 0.0 0.00 0.00 0.00 83 1002.2
20260905094512 65 241 0.0 0.0 0.00 0.00 0.00 83 1002.2
20260905093008 65 241 0.0 0.0 0.00 0.00 0.00 84 1002.3
20260905091512 65 241 0.0 0.0 0.00 0.00 0.00 84 1002.3
20260905090015 65 241 0.0 0.0 0.00 0.00 0.00 84 1002.3
20260905084505 65 241 0.0 0.0 0.00 0.00 0.00 85 1002.4
20260905083006 66 241 0.0 0.0 0.00 0.00 0.00 85 1002.4
20260905081504 66 241 0.0 0.0 0.00 0.00 0.00 85 1002.5
20260905080002 66 241 0.0 0.0 0.00 0.00 0.00 85 1002.5
20260905074601 67 241 0.0 0.0 0.00 0.00 0.00 86 1002.4
20260905073101 67 241 0.0 0.0 0.00 0.00 0.00 86 1002.5
20260905071558 67 241 0.0 0.0 0.00 0.00 0.00 86 1002.3
20260905070055 67 241 0.0 0.0 0.00 0.00 0.00 86 1002.3
20260905064558 67 241 0.0 0.0 0.00 0.00 0.00 85 1002.2
20260905063056 68 241 0.0 0.0 0.00 0.00 0.00 85 1002.3
20260905061559 67 241 0.0 0.0 0.00 0.00 0.00 86 1002.2
20260905060053 67 250 0.0 0.0 0.00 0.00 0.00 86 1002.1
20260905054553 68 250 0.0 0.0 0.00 0.00 0.00 85 1002.1
20260905053058 68 250 0.0 0.0 0.00 0.00 0.00 85 1002.1
20260905051553 69 250 0.0 0.0 0.00 0.00 0.00 84 1002.1
20260905050052 69 250 0.0 0.0 0.00 0.00 0.00 84 1002.1
20260905044551 70 250 0.0 0.0 0.00 0.00 0.00 84 1002.1
20260905043057 69 250 0.0 0.0 0.00 0.00 0.00 85 1001.8
20260905041550 69 250 0.0 0.0 0.00 0.00 0.00 84 1001.7
20260905040049 69 250 0.0 1.0 0.00 0.00 0.00 84 1001.6
20260905034605 69 250 0.0 4.0 0.00 0.00 0.00 83 1001.4
20260905033112 69 244 0.0 0.0 0.00 0.00 0.00 83 1001.4
20260905031559 69 242 0.0 1.0 0.00 0.00 0.00 82 1001.1
20260905030056 70 237 0.0 3.0 0.00 0.00 0.00 81 1001.0
20260905024548 70 235 0.0 5.0 0.00 0.00 0.00 81 1000.9
20260905023055 70 251 0.0 4.0 0.00 0.00 0.00 81 1000.9
20260905021548 71 241 1.0 6.0 0.00 0.00 0.00 80 1000.9
20260905020045 71 246 1.0 7.0 0.00 0.00 0.00 79 1001.2
20260905014544 72 247 0.0 6.0 0.00 0.00 0.00 77 1001.1
20260905013044 73 248 2.0 6.0 0.00 0.00 0.00 76 1001.2
20260905011546 74 190 0.0 6.0 0.00 0.00 0.00 74 1001.3
20260905010044 74 248 1.0 8.0 0.00 0.00 0.00 73 1001.3
20260905004542 75 255 0.0 6.0 0.00 0.00 0.00 71 1001.4
20260905003041 76 238 0.0 7.0 0.00 0.00 0.00 70 1001.4
20260905001546 76 239 2.0 9.0 0.00 0.00 0.00 70 1001.4
20260905000039 77 251 2.0 8.0 0.00 0.00 0.00 68 1001.3
20260904234539 77 245 2.0 8.0 0.00 0.00 0.00 68 1001.3
20260904233046 78 253 3.0 8.0 0.00 0.00 0.00 67 1001.3
20260904231541 78 259 1.0 8.0 0.00 0.00 0.00 67 1001.3
20260904230101 78 250 1.0 6.0 0.00 0.00 0.00 66 1001.5
20260904224537 77 254 1.0 9.0 0.00 0.00 0.00 68 1001.5
20260904223043 78 264 3.0 11.0 0.00 0.00 0.00 66 1001.6
20260904221541 78 244 0.0 5.0 0.00 0.00 0.00 66 1001.6
20260904220038 78 217 0.0 6.0 0.00 0.00 0.00 65 1001.6
20260904214537 78 212 2.0 8.0 0.00 0.00 0.00 65 1001.7
20260904213035 79 175 0.0 6.0 0.00 0.00 0.00 64 1001.7
20260904211534 79 191 1.0 7.0 0.00 0.00 0.00 64 1001.8
20260904210033 79 255 1.0 7.0 0.00 0.00 0.00 64 1001.7
20260904204535 79 188 0.0 7.0 0.00 0.00 0.00 65 1001.8
20260904203032 79 257 1.0 7.0 0.00 0.00 0.00 65 1001.9
20260904201530 79 207 1.0 9.0 0.00 0.00 0.00 63 1002.0
20260904200042 80 230 0.0 4.0 0.00 0.00 0.00 63 1002.1
20260904194534 80 240 1.0 8.0 0.00 0.00 0.00 63 1002.1
20260904193036 80 182 0.0 2.0 0.00 0.00 0.00 61 1002.3
20260904191536 80 247 2.0 7.0 0.00 0.00 0.00 61 1002.6
20260904190025 79 116 1.0 3.0 0.00 0.00 0.00 60 1002.8
20260904184523 79 99 1.0 4.0 0.00 0.00 0.00 60 1002.8
20260904183022 79 157 0.0 2.0 0.00 0.00 0.00 60 1002.9
20260904181523 78 155 0.0 2.0 0.00 0.00 0.00 63 1003.0
20260904180020 77 139 0.0 2.0 0.00 0.00 0.00 65 1003.2
20260904174515 77 142 0.0 2.0 0.00 0.00 0.00 65 1003.2
20260904173013 75 179 0.0 1.0 0.00 0.00 0.00 67 1003.2
20260904171512 75 266 0.0 2.0 0.00 0.00 0.00 68 1003.1
20260904170009 74 266 1.0 3.0 0.00 0.00 0.00 70 1002.9
20260904164507 75 155 0.0 3.0 0.00 0.00 0.00 69 1002.7
20260904163004 75 273 0.0 2.0 0.00 0.00 0.00 72 1002.6
20260904161600 74 61 0.0 2.0 0.00 0.00 0.00 74 1002.6
20260904160057 72 61 0.0 1.0 0.00 0.00 0.00 77 1002.5
20260904154555 72 61 0.0 3.0 0.00 0.00 0.00 78 1002.5
20260904153107 71 58 0.0 3.0 0.00 0.00 0.00 80 1002.6
20260904151547 69 55 0.0 3.0 0.00 0.00 0.00 81 1002.5
20260904150047 68 53 1.0 3.0 0.00 0.00 0.00 82 1002.4
20260904144542 67 265 1.0 4.0 0.00 0.00 0.00 84 1002.3
20260904143039 66 260 0.0 1.0 0.00 0.00 0.00 84 1002.1
20260904141534 65 260 0.0 1.0 0.00 0.00 0.00 79 1001.9
20260904140035 63 260 0.0 0.0 0.00 0.00 0.00 78 1001.9
20260904134535 63 259 0.0 0.0 0.00 0.00 0.00 81 1001.7
20260904133030 63 260 0.0 0.0 0.00 0.00 0.00 82 1001.6
20260904131539 63 260 0.0 0.0 0.00 0.00 0.00 82 1001.7
20260904130027 63 260 0.0 0.0 0.00 0.00 0.00 82 1001.6